Weather History for KNYL - August, 2013

Change the Weather History Date:

Sunday, August 25, 2013

  Actual Average Record
Temperature  
Mean Temperature 84 °F 94 °F  
Max Temperature 88 °F 106 °F 116 °F (1962)
Min Temperature 79 °F 82 °F 66 °F (1900)
Degree Days  
Heating Degree Days 0 0  
Month to date heating degree days 0 0  
Since 1 June heating degree days 0 0  
Since 1 July heating degree days 0 0  
Cooling Degree Days 19 29  
Month to date cooling degree days 732 737  
Year to date cooling degree days 3544 3283  
Since 1 June cooling degree days 2483 2371  
Growing Degree Days 34 (Base 50)    
Moisture  
Dew Point 69 °F    
Average Humidity 63    
Maximum Humidity 74    
Minimum Humidity 51    
Precipitation  
Precipitation 0.00 in 0.01 in 0.59 in (1982)
Month to date precipitation 0.02 0.38  
Year to date precipitation 1.60 2.00  
Sea Level Pressure  
Sea Level Pressure 29.88 in    
Wind  
Wind Speed 6 mph (East)    
Max Wind Speed 14 mph    
Max Gust Speed 17 mph    
Visibility 10 miles    
Events Rain    
T = Trace of Precipitation, MM = Missing Value Source: NWS Daily Summary

Daily Weather History Graph

Daily Weather History Graph

Search for Another Location

Airport or City:

Trip Planner

Search our weather history database for the weather conditions in past years. The results will help you decide how hot, cold, wet, or windy it might be!

Date:

Astronomy

Aug. 25, 2013 Rise Set
Actual Time 6:08 AM MST 7:11 PM MST
Civil Twilight 5:43 AM MST 7:36 PM MST
Nautical Twilight 5:13 AM MST 8:06 PM MST
Astronomical Twilight 4:42 AM MST 8:37 PM MST
Moon 10:06 PM MST (8/25) 10:55 AM MST (8/25)
Length of Visible Light 13h 53m
Length of Day
13h 02m
Waning Gibbous, 75% of the Moon is Illuminated
Aug 25
Waning Gibbous
Aug 28
Last Quarter
Sep 5
New
Sep 12
First Quarter
Sep 19
Full

Hourly Weather History & Observations

Time (MST) Temp. Heat Index Dew Point Humidity Pressure Visibility Wind Dir Wind Speed Gust Speed Precip Events Conditions
12:57 AM 80.1 °F 83.6 °F 71.1 °F 74% 29.84 in 10.0 mi Calm Calm - N/A   Mostly Cloudy
1:57 AM 81.0 °F 84.9 °F 71.1 °F 72% 29.85 in 10.0 mi East 4.6 mph - N/A   Mostly Cloudy
2:57 AM 81.0 °F 84.9 °F 71.1 °F 72% 29.85 in 10.0 mi ENE 9.2 mph - N/A   Mostly Cloudy
3:57 AM 81.0 °F 84.4 °F 70.0 °F 69% 29.85 in 10.0 mi ENE 5.8 mph - N/A   Mostly Cloudy
4:57 AM 82.0 °F 85.9 °F 70.0 °F 67% 29.86 in 10.0 mi ENE 3.5 mph - N/A   Overcast
5:57 AM 81.0 °F 84.4 °F 70.0 °F 69% 29.87 in 10.0 mi ENE 4.6 mph - N/A   Overcast
6:57 AM 82.9 °F 88.0 °F 72.0 °F 69% 29.88 in 10.0 mi ESE 4.6 mph - N/A   Mostly Cloudy
7:57 AM 84.0 °F 90.2 °F 73.0 °F 69% 29.89 in 10.0 mi SE 6.9 mph - N/A   Mostly Cloudy
8:57 AM 84.9 °F 90.7 °F 72.0 °F 65% 29.91 in 10.0 mi ESE 8.1 mph - N/A   Overcast
9:57 AM 87.1 °F 91.3 °F 69.1 °F 55% 29.92 in 10.0 mi SE 11.5 mph - N/A   Overcast
10:57 AM 87.1 °F 90.6 °F 68.0 °F 53% 29.92 in 10.0 mi SE 9.2 mph - N/A   Overcast
11:57 AM 88.0 °F 92.9 °F 70.0 °F 55% 29.92 in 10.0 mi East 8.1 mph - N/A   Overcast
12:57 PM 84.0 °F 89.6 °F 72.0 °F 67% 29.91 in 7.0 mi WNW 5.8 mph - N/A   Overcast
1:57 PM 87.1 °F 92.0 °F 70.0 °F 57% 29.90 in 10.0 mi NE 3.5 mph - N/A   Overcast
2:57 PM 87.1 °F 90.6 °F 68.0 °F 53% 29.90 in 10.0 mi SSE 6.9 mph - N/A   Overcast
3:57 PM 84.9 °F 86.6 °F 64.9 °F 51% 29.87 in 10.0 mi ESE 3.5 mph - N/A   Overcast
4:57 PM 86.0 °F 88.2 °F 66.0 °F 51% 29.85 in 10.0 mi ESE 4.6 mph - N/A   Overcast
5:57 PM 86.0 °F 88.8 °F 66.9 °F 53% 29.86 in 10.0 mi East 4.6 mph - N/A Rain Light Rain
6:57 PM 84.9 °F 87.6 °F 66.9 °F 55% 29.87 in 10.0 mi NE 8.1 mph - N/A   Overcast
7:57 PM 84.9 °F 87.6 °F 66.9 °F 55% 29.88 in 10.0 mi NNE 4.6 mph - N/A   Overcast
8:57 PM 82.0 °F 86.3 °F 71.1 °F 69% 29.91 in 10.0 mi ENE 5.8 mph - N/A Rain Light Rain
9:57 PM 81.0 °F 84.1 °F 69.1 °F 67% 29.91 in 10.0 mi ENE 10.4 mph - N/A   Overcast
10:57 PM 81.0 °F 83.8 °F 68.0 °F 65% 29.89 in 10.0 mi NE 6.9 mph - N/A   Overcast
11:57 PM 80.1 °F 83.2 °F 70.0 °F 71% 29.90 in 10.0 mi ENE 5.8 mph - N/A Rain Light Rain